Regional Weather Roundup
Issued by NWS

Home | Current Version | Previous Version | Text Only | Print | Product List | Glossary On
Versions: 1 2 3 4 5 6 7 8 9 10 11 12 13 14 15 16 17 18 19 20 21 22 23 24 25 26 27 28 29 30 31 32 33 34 35 36 37 38 39 40 41 42 43 44 45 46 47 48 49 50
582
ASUS44 KJAN 220910
RWRMS

MISSISSIPPI HOURLY WEATHER ROUNDUP
NATIONAL WEATHER SERVICE JACKSON MS
400 AM CDT WED OCT 22 2014

NOTE: "FAIR: INDICATES FEW OR NO CLOUDS BELOW 12,000 FEET WITH NO
SIGNIFICANT WEATHER AND/OR OBSTRUCTIONS TO VISIBILITY.

MSZ001>002-007>008-010>013-018>021-025>028-034>036-221000-
NORTHWEST MISSISSIPPI

CITY           SKY/WX    TMP DP  RH WIND       PRES   REMARKS
CLARKSDALE     FAIR      50  48  93 CALM      30.13R
CLEVELAND      FAIR      51  50  95 NE5       30.10S FOG
GREENWOOD      CLEAR     50  48  93 NE3       30.10S
GREENVILLE     CLEAR     51  48  89 N5        30.10R
GRENADA          N/A    N/A N/A N/A MISG        N/A
OLIVE BRANCH   CLEAR     48  48 100 NE5       30.14F
OXFORD         FAIR      50  46  87 NE8       30.14R
TUNICA         SUNNY     50  46  87 N3        30.14R
$$

MSZ003>006-009-014>017-022>024-029>033-037>039-221000-
NORTHEAST MISSISSIPPI

CITY           SKY/WX    TMP DP  RH WIND       PRES   REMARKS
COLUMBUS AFB   CLEAR     48  48  99 N6        30.10R
CORINTH        FAIR      46  45  93 NW3       30.14R
GOLDN TRIANGLE CLEAR     48  43  81 N6        30.09R
STARKVILLE     FAIR      46  46 100 CALM      30.10R
TUPELO         CLEAR     48  45  89 NE7       30.12R
$$

MSZ040-058-221000-
CENTRAL MISSISSIPPI

CITY           SKY/WX    TMP DP  RH WIND       PRES   REMARKS
JACKSON INTL   CLEAR     51  49  92 CALM      30.08R
JACKSON HAWKNS CLEAR     55  52  89 CALM      30.08R
MERIDIAN KEY   FOG       47  45  93 CALM      30.07S VSB 1
MERIDIAN NAS   CLEAR     50  48  93 NW3       30.08R
RAYMOND        HAZE      48  45  87 MISG      30.08S VSB 1/4
VICKSBURG      CLEAR     52  51  97 CALM      30.08S
$$

MSZ059>079-221000-
SOUTH MISSISSIPPI

CITY           SKY/WX    TMP DP  RH WIND       PRES   REMARKS
BROOKHAVEN     FAIR      54  54 100 N3        30.08S FOG
HATTIESBURG    CLEAR     53  52  96 CALM      30.06S
MCCOMB         CLEAR     61  54  77 N5        30.05S
NATCHEZ        CLEAR     54  50  87 CALM      30.07F
PINE BELT      CLEAR     54  48  82 N5        30.07S
$$

MSZ080>082-221000-
COASTAL MISSISSIPPI

CITY           SKY/WX    TMP DP  RH WIND       PRES   REMARKS
BILOXI         CLEAR     58  55  89 NE7       30.02S
PASCAGOULA     CLEAR     50  50 100 CALM      30.02S
GULFPORT       CLEAR     56  53  90 N3        30.02S
$$



USA.gov is the U.S. government's official web portal to all federal, state and local government web resources and services.